Cloud_Cover
42 5 100 100 100 100 100 100 100 64 100 100 100 100 96 97 100 100 100 100 95 51 54 66 100 84 100 79 90 100 75 96 100 100 100 98 58 94 100 100 100 100 100
96 72 100 100 100 100 83 100 100 100 100 64 60 93 50 88 100 100 100 100 100 96 58 57 26 94 100 99 100 100 100 100 100 100 100 100 100 100 100 100 100 100 100
45 30 72 85 100 98 100 100 100 100 100 100 40 11 100 100 100 100 100 100 100 98 73 65 98 98 100 100 100 100 94 78 96 100 100 100 77 56 97 100 100 88 99
47 99 100 83 93 100 100 100 100 100 100 100 100 94 26 74 100 100 100 100 98 95 24 41 95 100 100 100 100 100 100 100 100 100 100 100 99 77 73 75 100 97 97
82 91 100 98 100 100 65 98 100 100 100 100 100 100 87 58 100 100 100 88 5 31 9 5 32 100 100 100 100 100 100 100 100 100 100 100 100 100 98 74 100 100 100
92 94 100 100 100 100 100 100 100 100 100 100 100 100 100 100 97 100 100 100 64 81 77 63 97 38 100 100 100 100 100 100 100 100 100 100 100 100 100 100 100 100 100
93 87 100 100 100 100 100 100 100 100 100 100 100 100 100 100 96 92 100 97 99 48 43 52 32 94 82 98 99 100 100 100 100 100 100 100 100 86 89 100 100 100 85
100 99 100 100 100 100 100 100 100 100 97 100 100 100 100 100 100 100 100 100 98 88 74 58 87 98 90 100 100 100 100 100 100 100 100 100 100 46 26 96 62 100 100
84 78 98 100 100 100 100 100 100 100 100 100 100 100 100 100 100 100 100 100 100 100 100 100 100 100 100 100 100 100 100 84 100 100 100 100 100 25 58 56 91 98 86
100 94 48 96 100 100 100 100 100 100 100 100 100 100 100 100 100 100 100 100 100 100 100 100 100 100 96 100 14 62 100 98 55 100 100 100 100 3 37 60 93 100 98
99 36 8 96 82 95 98 100 100 100 100 100 100 100 100 100 100 100 100 100 100 100 100 100 89 42 59 98 77 65 53 71 60 99 100 100 93 2 2 41 75 100 100
100 100 95 100 97 100 100 100 100 99 100 85 100 97 86 100 100 100 100 100 100 100 100 100 100 99 19 24 42 16 7 75 30 72 44 38 9 0 0 0 65 94 85
100 100 100 100 100 100 100 100 100 99 100 56 68 100 100 100 100 100 100 100 96 100 96 16 20 25 10 13 5 36 99 7 4 5 12 4 52 10 6 0 0 0 65
100 100 100 100 100 56 94 100 100 100 100 100 76 46 100 92 100 98 54 28 11 62 17 7 5 5 37 18 45 6 2 0 5 5 31 48 89 78 0 0 0 0 2
100 100 100 100 100 100 96 31 46 99 99 100 100 56 58 54 72 14 34 7 23 20 36 6 19 14 19 2 3 0 0 0 0 0 8 1 0 0 0 0 0 0 57
100 100 100 98 100 100 100 100 100 98 78 51 12 51 23 6 22 38 60 58 93 100 18 0 11 30 65 61 38 8 3 2 3 7 1 0 0 0 0 6 3 4 0
6 52 100 99 77 98 100 100 100 100 100 100 84 70 84 100 87 99 76 100 100 100 53 34 69 99 100 100 100 93 76 66 86 53 42 18 30 24 14 0 0 6 81
5 9 1 67 100 28 5 12 82 95 68 83 91 80 90 94 30 36 100 86 2 45 43 100 100 100 100 100 100 100 100 92 79 100 100 96 96 75 46 27 1 5 30
0 0 0 0 0 3 19 5 3 0 2 3 4 0 3 15 1 94 97 21 17 82 88 84 98 100 100 100 100 100 100 100 100 96 93 100 100 98 99 88 0 27 18
0 0 0 0 0 0 4 0 0 1 4 5 5 5 5 14 4 11 65 99 61 99 94 100 100 100 100 100 100 100 100 100 100 100 54 100 100 100 100 61 13 38 18
3 0 0 0 0 0 1 5 3 5 5 5 6 8 54 33 47 16 4 48 99 100 100 100 100 100 100 100 100 100 100 100 100 100 100 100 100 100 100 52 56 42 33
0 0 0 3 14 72 96 82 95 69 43 5 1 3 14 20 40 95 100 100 100 100 100 100 100 100 100 100 100 100 100 100 100 100 100 100 100 100 100 100 100 100 19
4 2 5 5 5 5 5 5 5 5 5 5 0 0 0 2 56 98 100 100 100 100 100 100 100 100 100 100 100 100 100 100 100 100 100 100 100 100 100 100 100 100 100
3 4 5 5 5 47 45 5 5 5 8 3 0 4 5 9 70 100 100 100 100 100 100 100 100 100 100 100 100 100 100 100 100 100 100 100 100 100 100 100 99 100 100
0 0 0 4 5 85 82 5 51 48 3 4 5 5 5 15 40 93 100 100 100 100 100 100 100 100 100 100 100 100 100 100 100 100 100 100 100 100 100 100 100 100 100
5 13 6 5 6 21 16 7 93 5 5 5 5 5 5 25 74 77 100 100 100 100 100 100 100 100 100 100 100 100 100 100 100 100 100 100 100 100 100 100 100 100 100